This demonstration page uses our WeatherBlox Daily Observations layout. Learn more.

38.89511, -77.03637

Hourly Observations for January 6, 2018

Temp ( °F °C ) Dew Point ( °F °C ) Humidity (%) Winds ( mph kmh ) Pressure ( in mb ) Visibility ( mi km ) Precip ( " mm )
12:52 am 00:52 Clear 15 -9.4 -5 -20.6 40 40 W 10 17 30.3 1026 10 16.0934 0 0
1:52 am 01:52 Clear 14 -10 -4 -20 44 44 WNW 8 13 30.32 1027 10 16.0934 0 0
2:52 am 02:52 Clear 14 -10 -4 -20 44 44 WNW 12 19 30.34 1027 10 16.0934 0 0
3:52 am 03:52 Clear 13 -10.6 -6 -21.1 42 42 NW 12 19 30.35 1028 10 16.0934 0 0
4:52 am 04:52 Clear 12 -11.1 -7 -21.7 42 42 NW 12 19 30.37 1028 10 16.0934 0 0
5:52 am 05:52 Clear 11 -11.7 -7 -21.7 44 44 NW 15 24 30.39 1029 10 16.0934 0 0
6:52 am 06:52 Clear 11 -11.7 -7 -21.7 44 44 WNW 12 19 30.41 1030 10 16.0934 0 0
7:52 am 07:52 Sunny 11 -11.7 -6 -21.1 46 46 NW 9 15 30.42 1030 10 16.0934 0 0
8:52 am 08:52 Mostly Sunny 13 -10.6 -6 -21.1 42 42 WNW 10 17 30.45 1031 10 16.0934 0 0
9:52 am 09:52 Mostly Sunny 15 -9.4 -6 -21.1 38 38 WNW 12 19 30.48 1032 10 16.0934 0 0
10:52 am 10:52 Partly Cloudy 16 -8.9 -6 -21.1 37 37 W 16 26 30.48 1032 10 16.0934 0 0
11:52 am 11:52 Mostly Sunny 18 -7.8 -6 -21.1 34 34 WNW 22 35 30.45 1031 10 16.0934 0 0
12:52 pm 12:52 Mostly Sunny 18 -7.8 -7 -21.7 32 32 WNW 17 28 30.43 1031 10 16.0934 0 0
1:52 pm 13:52 Mostly Sunny 20 -6.7 -7 -21.7 29 29 WNW 20 31 30.42 1030 10 16.0934 0 0
2:52 pm 14:52 Mostly Sunny 20 -6.7 -7 -21.7 29 29 WNW 17 28 30.43 1030 10 16.0934 0 0
3:52 pm 15:52 Mostly Sunny 19 -7.2 -8 -22.2 29 29 NW 17 28 30.45 1031 10 16.0934 0 0
4:52 pm 16:52 Mostly Sunny 18 -7.8 -8 -22.2 31 31 NW 17 28 30.48 1032 10 16.0934 0 0
5:52 pm 17:52 Mostly Clear 17 -8.3 -8 -22.2 32 32 NW 12 19 30.5 1033 10 16.0934 0 0
6:52 pm 18:52 Clear 16 -8.9 -7 -21.7 35 35 NW 13 20 30.53 1034 10 16.0934 0 0
7:52 pm 19:52 Clear 15 -9.4 -6 -21.1 38 38 NW 9 15 30.54 1034 10 16.0934 0 0
8:52 pm 20:52 Clear 15 -9.4 -5 -20.6 40 40 NW 14 22 30.56 1035 10 16.0934 0 0
9:52 pm 21:52 Clear 14 -10 -4 -20 44 44 NW 10 17 30.57 1035 10 16.0934 0 0
10:52 pm 22:52 Clear 14 -10 -4 -20 44 44 NW 15 24 30.58 1036 10 16.0934 0 0
11:52 pm 23:52 Clear 13 -10.6 -5 -20.6 44 44 NW 13 20 30.59 1036 10 16.0934 0 0

Powered by AerisWeather